Wind_Speed
15 16 17 17 16 17 18 19 19 18 18 17 17 18 21 24 25 25 30 28 24 19 23 13 11 10 17 12 16 14 2 5 6 6 9 7 10 25 14 13 23 3 4 14 10
16 16 17 18 19 19 18 18 18 19 19 19 19 19 21 24 28 32 28 26 25 21 21 24 20 12 11 13 9 8 7 9 8 7 6 14 3 17 27 20 17 23 4 3 13
16 17 18 19 19 19 20 19 18 18 19 19 19 19 19 22 25 9 10 6 5 21 28 25 24 18 15 23 13 7 14 12 16 17 18 19 21 19 20 15 23 17 22 24 16
16 17 18 19 19 20 20 20 21 20 19 19 21 22 20 17 7 10 6 7 6 9 30 31 20 13 6 11 22 10 20 21 23 27 24 18 27 23 24 27 26 28 31 31 29
18 19 19 20 20 20 20 21 21 22 22 22 21 22 24 10 23 11 15 11 1 10 25 29 26 17 6 7 14 21 17 21 24 31 32 31 27 25 34 37 36 38 38 34 28
20 21 21 21 21 21 23 23 23 22 22 23 23 21 13 11 16 13 18 24 13 10 12 27 11 19 8 6 10 6 6 20 24 30 31 21 27 30 34 39 40 36 34 36 37
19 20 21 21 21 21 23 23 22 20 20 21 19 14 14 27 21 19 20 21 18 13 15 21 25 14 10 4 25 21 10 15 23 17 15 28 27 28 37 34 37 37 38 37 39
24 26 27 28 24 22 22 20 13 12 16 18 18 12 13 28 11 13 9 24 24 19 15 13 12 9 19 10 9 2 4 18 20 19 14 11 32 23 26 23 30 34 38 44 47
27 27 27 26 25 24 22 23 16 14 13 16 16 10 16 10 11 11 10 11 21 19 12 12 8 10 6 4 1 6 17 21 24 11 5 13 42 13 26 31 26 29 35 39 43
27 27 28 28 25 19 19 23 21 12 19 15 7 11 10 11 10 20 18 8 2 7 16 12 6 5 4 6 19 12 22 18 17 7 15 18 33 22 31 34 36 40 44 43 43
26 26 28 24 20 13 16 22 28 5 31 14 28 28 38 47 49 37 13 18 14 12 6 4 4 18 27 17 10 10 12 15 4 10 14 20 22 20 21 28 22 29 31 39 42
25 24 25 17 12 10 15 21 20 18 12 29 21 26 30 30 36 42 25 12 9 4 3 4 18 14 10 6 12 14 15 19 6 8 10 14 25 25 24 25 29 34 36 34 43
23 22 21 14 8 10 10 16 19 20 5 15 23 16 27 17 28 36 24 18 9 11 9 10 6 9 16 13 17 16 18 14 10 11 20 7 19 18 18 18 23 28 36 36 39
22 20 16 15 3 17 17 25 15 15 2 5 7 7 15 3 3 11 23 25 9 11 12 11 12 14 14 19 17 18 12 11 16 13 15 4 20 24 19 25 18 20 29 36 38
22 18 11 9 11 16 21 16 11 2 3 12 9 11 18 16 20 0 12 8 22 21 8 12 9 4 13 16 15 19 14 11 13 11 14 14 6 30 10 18 17 18 32 39 38
22 16 9 8 10 15 20 18 3 5 3 7 9 13 13 13 18 15 6 13 21 8 20 13 16 15 13 14 12 8 10 16 17 4 8 12 13 22 15 18 11 12 22 28 37
24 16 9 10 13 16 18 10 5 4 9 9 21 17 6 11 14 11 5 3 5 4 2 3 9 11 12 12 11 7 1 4 4 6 16 13 9 21 11 7 11 15 24 37 34
24 15 8 10 10 15 16 5 6 4 6 15 19 21 5 8 8 11 10 7 0 12 4 6 4 9 2 2 6 7 9 5 7 5 8 14 10 9 16 25 36 30 34 30 31
29 10 9 6 9 8 7 5 3 9 5 12 12 6 5 8 4 8 7 3 8 13 3 0 5 2 7 8 2 5 10 7 5 14 2 7 9 8 19 24 22 19 15 13 17
25 11 6 6 5 7 4 2 3 13 10 9 3 4 11 8 6 9 5 3 5 8 2 6 5 5 6 5 3 6 4 3 4 8 6 6 6 11 8 10 10 10 10 18 23
11 6 8 4 7 1 2 5 9 19 15 6 6 7 9 6 8 6 4 5 3 6 5 3 1 5 5 4 8 3 2 3 4 4 10 3 6 5 13 12 17 8 22 31 32
10 3 2 5 4 2 1 5 15 17 15 4 5 4 4 5 5 5 4 4 10 7 6 1 2 4 10 15 13 4 6 5 2 7 4 4 16 12 16 9 19 12 25 28 34
17 6 2 6 3 4 6 10 16 10 15 4 5 4 3 3 4 5 3 8 7 2 2 4 2 4 9 2 7 6 3 1 4 6 16 6 9 3 8 7 4 20 26 30 34
8 4 5 6 15 2 6 6 11 12 16 13 9 5 6 7 4 6 11 4 8 8 10 1 4 6 6 7 7 8 8 7 3 3 11 16 16 22 21 8 6 8 29 33 37
6 3 5 4 7 8 8 5 14 6 7 15 4 6 8 6 9 4 4 9 7 16 4 7 4 10 12 17 17 18 16 12 8 6 4 7 17 18 17 13 11 24 30 31 32
8 7 9 15 12 6 5 3 15 11 7 8 8 16 8 10 9 17 12 9 9 5 7 6 4 5 15 18 18 19 13 12 11 12 11 15 26 13 11 16 7 26 31 30 32
11 5 8 9 6 4 3 12 12 14 10 16 15 14 10 14 19 31 30 30 19 10 7 8 5 3 8 13 3 4 12 9 5 7 6 7 12 15 7 2 8 14 32 34 34
Wind_Direction
344 338 338 339 335 332 329 324 321 314 309 306 304 303 301 297 286 277 267 265 263 252 241 233 234 227 207 224 205 198 145 235 227 205 249 39 360 300 305 329 328 226 220 185 209
357 356 354 350 346 343 338 333 328 323 319 312 305 296 294 295 293 281 277 269 260 247 244 232 227 210 208 232 215 185 193 228 230 233 284 308 268 280 301 316 300 314 235 327 318
1 359 357 353 349 345 340 336 332 328 324 321 313 305 299 300 305 281 126 152 258 230 230 230 227 223 225 229 208 210 226 214 254 259 268 273 288 253 274 278 272 270 294 309 289
5 360 356 351 347 343 338 334 330 326 322 318 317 314 304 304 272 163 163 83 40 273 215 221 215 219 207 217 235 264 240 232 248 262 267 260 270 277 267 262 277 280 284 289 294
5 360 355 350 346 343 336 329 323 318 315 313 313 309 309 286 255 243 255 298 314 322 216 209 207 204 203 209 238 251 254 247 250 251 255 264 265 264 276 281 283 286 288 291 294
0 355 353 349 341 337 332 326 320 314 310 309 313 312 299 276 301 310 275 258 239 246 237 211 217 221 267 227 215 270 288 266 260 252 257 259 265 266 267 274 279 280 284 286 291
359 355 354 347 340 334 331 328 326 319 307 302 304 302 271 269 308 294 263 253 227 242 241 223 221 220 235 283 253 262 282 279 259 252 256 256 262 253 256 267 270 274 278 282 284
357 356 352 348 346 340 343 344 358 330 299 302 300 297 265 312 307 294 286 244 236 244 244 227 215 255 254 267 293 244 249 247 250 245 248 264 265 252 255 266 277 280 281 279 280
355 352 349 349 348 346 3 6 343 315 315 324 302 315 274 305 298 343 310 287 234 236 246 242 250 233 230 174 338 209 239 238 250 227 237 205 261 245 258 259 266 271 273 273 276
349 346 348 354 358 354 10 17 17 58 6 345 337 325 291 320 306 318 310 284 182 231 256 248 246 208 181 176 216 215 222 236 255 216 227 238 263 264 265 267 269 272 271 270 272
346 347 351 352 354 360 7 11 16 349 324 309 290 270 271 291 287 283 278 327 291 261 182 231 188 222 217 224 282 274 263 252 253 200 214 242 255 264 255 256 258 264 268 264 265
344 347 346 351 356 357 6 10 359 332 305 320 314 297 290 284 273 286 271 295 297 259 193 226 233 247 268 261 228 248 267 268 307 297 230 245 257 260 262 262 255 258 259 259 267
340 347 344 358 22 349 351 342 340 335 325 313 346 333 322 303 247 253 263 276 262 267 254 223 224 221 239 249 248 244 236 260 268 305 291 304 284 272 265 264 265 268 274 273 273
338 345 346 359 0 356 338 334 330 337 65 277 297 312 337 331 260 281 259 250 237 240 232 255 248 255 259 229 237 250 251 253 245 255 261 203 280 265 270 268 267 254 259 268 275
337 338 346 345 353 344 342 355 339 10 30 334 296 330 339 16 344 210 291 291 222 233 195 232 283 238 238 246 231 251 251 245 230 238 247 243 275 269 225 250 250 253 252 261 269
337 332 330 331 325 342 339 333 20 50 296 319 319 348 355 353 346 359 22 6 327 258 227 231 219 249 255 262 262 286 232 235 258 242 244 218 220 277 246 247 243 247 257 271 278
339 327 304 308 329 347 348 334 40 90 337 338 327 338 341 356 332 4 337 241 185 351 301 289 250 238 235 247 256 232 241 232 239 202 234 178 220 239 267 238 242 251 254 258 265
345 321 278 315 325 350 340 38 60 307 319 329 336 311 355 14 312 327 349 346 259 177 218 210 248 217 164 190 216 186 182 192 197 193 243 258 234 247 236 253 260 254 263 272 278
343 320 306 308 336 356 350 40 231 336 288 325 330 321 345 338 268 329 340 304 20 34 279 116 252 37 301 297 188 310 219 206 283 275 356 233 283 298 270 272 266 262 261 239 200
347 349 352 284 316 343 62 262 257 315 322 353 316 308 318 322 329 341 315 8 360 18 348 16 309 266 306 348 271 202 293 167 201 213 236 259 257 234 263 263 270 248 175 169 164
3 349 358 221 288 332 138 237 287 323 354 310 298 304 323 331 307 302 352 319 335 334 312 115 15 310 338 210 231 308 224 221 168 197 221 288 248 234 256 268 274 233 174 163 163
358 3 328 295 323 20 295 280 328 325 339 299 290 304 331 303 290 297 326 229 339 337 319 118 149 264 253 249 261 236 248 149 195 255 265 229 256 266 290 304 293 172 163 160 158
342 309 8 319 43 318 299 323 308 324 318 291 286 299 272 279 321 269 245 300 304 285 316 355 280 307 316 310 237 252 182 7 232 231 245 235 259 233 264 325 1 146 151 151 155
340 350 337 345 353 16 319 314 328 300 297 339 294 325 342 311 255 286 299 289 291 196 267 39 243 226 228 273 325 286 291 300 315 254 247 245 284 266 270 309 111 227 150 153 156
1 316 13 304 326 316 304 279 312 322 305 319 305 328 313 297 299 257 306 310 294 279 177 163 234 260 266 269 267 262 262 256 247 257 263 290 276 277 268 294 220 177 150 148 151
0 350 325 296 291 303 317 334 312 320 298 301 315 310 304 293 272 293 281 279 258 281 173 177 251 235 281 267 263 243 235 241 243 263 254 251 275 277 289 289 122 167 156 153 156
345 332 306 280 297 319 255 321 299 322 306 296 304 305 305 287 280 282 267 264 242 227 229 195 211 237 271 337 176 227 241 219 250 215 225 248 276 300 349 24 97 194 161 158 161
Height
1528 1526 1523 1521 1520 1518 1515 1511 1509 1507 1504 1502 1500 1499 1496 1495 1492 1490 1486 1492 1494 1497 1497 1497 1497 1499 1503 1503 1503 1504 1515 1518 1506 1500 1487 1488 1488 1477 1482 1481 1481 1481 1480 1480 1483
1528 1525 1522 1520 1517 1514 1512 1509 1506 1503 1500 1499 1498 1498 1493 1491 1485 1480 1484 1484 1486 1490 1491 1494 1496 1499 1499 1498 1500 1498 1505 1504 1489 1485 1484 1482 1492 1492 1482 1483 1479 1479 1481 1479 1478
1528 1525 1522 1519 1516 1513 1510 1508 1505 1502 1500 1497 1497 1495 1491 1489 1482 1475 1474 1476 1478 1483 1485 1490 1493 1495 1494 1494 1492 1487 1486 1487 1483 1485 1485 1482 1481 1489 1487 1482 1480 1479 1477 1475 1476
1527 1525 1522 1519 1516 1513 1510 1507 1504 1501 1499 1497 1493 1488 1488 1486 1485 1470 1471 1471 1474 1477 1477 1481 1486 1489 1489 1488 1487 1487 1478 1482 1483 1483 1482 1479 1480 1476 1478 1477 1475 1474 1475 1472 1471
1527 1524 1521 1518 1515 1512 1509 1506 1503 1500 1497 1494 1492 1489 1483 1480 1473 1473 1470 1468 1469 1471 1471 1475 1478 1480 1484 1482 1484 1477 1474 1480 1480 1479 1476 1477 1474 1472 1465 1466 1466 1466 1465 1465 1465
1525 1522 1519 1515 1512 1508 1504 1501 1498 1495 1492 1489 1487 1483 1482 1482 1469 1467 1466 1465 1468 1470 1470 1472 1472 1476 1479 1478 1479 1471 1475 1474 1475 1473 1472 1473 1466 1466 1461 1462 1460 1460 1459 1458 1458
1525 1521 1518 1513 1509 1504 1500 1496 1492 1490 1487 1485 1483 1481 1479 1470 1463 1462 1462 1461 1463 1465 1467 1469 1472 1474 1473 1475 1473 1472 1476 1471 1463 1467 1466 1470 1457 1452 1455 1458 1456 1457 1454 1453 1452
1522 1518 1514 1509 1505 1501 1497 1493 1489 1487 1483 1481 1480 1478 1469 1461 1459 1456 1456 1455 1458 1461 1464 1465 1468 1470 1470 1470 1469 1471 1472 1471 1452 1461 1463 1473 1441 1444 1451 1453 1449 1449 1448 1446 1444
1520 1516 1513 1508 1503 1498 1496 1492 1488 1484 1483 1482 1479 1477 1464 1458 1456 1456 1456 1452 1455 1457 1461 1462 1465 1465 1467 1471 1477 1471 1467 1462 1450 1455 1460 1464 1421 1445 1449 1447 1443 1442 1439 1437 1434
1518 1515 1510 1505 1501 1497 1495 1492 1486 1484 1484 1482 1480 1481 1464 1458 1455 1454 1454 1453 1453 1455 1456 1459 1460 1462 1465 1468 1462 1463 1459 1448 1454 1456 1455 1457 1429 1438 1441 1439 1436 1434 1431 1429 1426
1517 1512 1507 1503 1501 1498 1495 1490 1487 1486 1479 1485 1480 1474 1461 1451 1453 1448 1453 1454 1453 1455 1456 1455 1462 1451 1437 1452 1457 1451 1453 1449 1447 1447 1451 1444 1437 1430 1431 1430 1429 1424 1421 1417 1416
1515 1510 1505 1502 1500 1497 1494 1491 1490 1491 1477 1475 1470 1464 1456 1451 1452 1440 1449 1455 1451 1452 1449 1455 1448 1444 1451 1453 1455 1456 1457 1451 1452 1445 1445 1445 1434 1425 1422 1419 1422 1417 1413 1412 1409
1513 1508 1503 1500 1498 1496 1493 1491 1488 1486 1484 1472 1467 1462 1454 1447 1443 1441 1446 1447 1449 1450 1449 1452 1445 1445 1451 1452 1453 1449 1453 1454 1459 1450 1438 1446 1436 1424 1413 1411 1411 1410 1405 1404 1399
1511 1506 1502 1497 1498 1494 1491 1487 1485 1483 1484 1473 1464 1456 1451 1445 1443 1438 1441 1446 1444 1447 1446 1445 1443 1445 1446 1448 1450 1448 1446 1448 1454 1457 1458 1444 1445 1422 1408 1400 1401 1400 1399 1395 1392
1510 1506 1502 1497 1496 1492 1490 1484 1482 1482 1498 1466 1461 1456 1452 1450 1443 1439 1440 1437 1434 1438 1442 1440 1439 1442 1442 1441 1440 1440 1443 1444 1445 1448 1453 1449 1458 1377 1401 1398 1393 1388 1385 1384 1387
1508 1505 1501 1499 1495 1491 1486 1483 1480 1491 1501 1470 1463 1457 1451 1447 1443 1437 1433 1436 1438 1429 1430 1433 1435 1435 1436 1434 1435 1437 1436 1440 1440 1449 1460 1438 1446 1385 1397 1389 1386 1379 1378 1378 1379
1505 1502 1499 1497 1495 1490 1485 1482 1491 1501 1477 1470 1466 1459 1453 1450 1443 1439 1437 1437 1443 1445 1435 1430 1430 1428 1429 1433 1431 1435 1443 1459 1463 1458 1437 1423 1433 1390 1379 1376 1378 1376 1374 1372 1373
1502 1499 1498 1496 1493 1490 1486 1486 1507 1481 1480 1478 1472 1461 1454 1453 1446 1440 1434 1436 1427 1433 1436 1437 1437 1424 1421 1426 1430 1432 1438 1451 1454 1452 1430 1419 1414 1391 1372 1370 1370 1371 1369 1369 1368
1498 1495 1494 1494 1493 1491 1489 1502 1494 1485 1486 1478 1470 1462 1458 1455 1453 1444 1440 1442 1435 1439 1442 1433 1429 1420 1421 1422 1426 1427 1430 1426 1436 1423 1434 1412 1391 1376 1367 1363 1358 1363 1364 1363 1363
1495 1493 1492 1492 1493 1492 1493 1495 1488 1483 1476 1475 1478 1472 1464 1457 1453 1449 1442 1440 1440 1439 1435 1437 1437 1421 1420 1420 1420 1422 1421 1432 1435 1441 1442 1411 1399 1383 1369 1363 1357 1359 1359 1363 1365
1496 1493 1492 1492 1493 1492 1502 1493 1483 1479 1475 1473 1470 1467 1464 1460 1454 1448 1446 1438 1438 1436 1435 1434 1441 1430 1426 1423 1422 1424 1422 1421 1422 1423 1419 1422 1395 1366 1360 1358 1355 1354 1353 1356 1363
1497 1496 1494 1494 1494 1493 1496 1486 1482 1476 1473 1468 1465 1462 1463 1459 1455 1449 1446 1445 1438 1438 1436 1435 1441 1443 1428 1416 1412 1415 1419 1423 1431 1422 1410 1407 1378 1358 1352 1348 1341 1343 1349 1356 1360
1499 1496 1493 1494 1502 1499 1490 1486 1482 1481 1472 1466 1463 1460 1457 1457 1458 1448 1444 1439 1437 1438 1437 1439 1443 1443 1426 1411 1412 1415 1413 1415 1416 1415 1405 1406 1374 1353 1352 1352 1344 1341 1350 1356 1362
1505 1502 1496 1494 1496 1496 1493 1486 1481 1477 1470 1467 1462 1458 1457 1455 1450 1447 1442 1436 1434 1435 1436 1440 1440 1438 1441 1421 1420 1420 1414 1414 1415 1416 1398 1389 1384 1358 1351 1354 1349 1356 1348 1354 1361
1509 1506 1504 1502 1495 1493 1491 1486 1481 1476 1471 1466 1462 1459 1458 1454 1448 1442 1438 1436 1433 1428 1433 1436 1436 1431 1426 1422 1419 1413 1410 1409 1412 1408 1413 1390 1380 1358 1352 1351 1348 1353 1351 1357 1362
1512 1511 1506 1501 1495 1492 1487 1484 1482 1477 1474 1466 1464 1455 1453 1451 1447 1439 1439 1437 1435 1429 1430 1433 1432 1426 1420 1411 1405 1406 1399 1402 1399 1400 1400 1396 1371 1363 1358 1349 1348 1350 1350 1355 1362
1512 1511 1508 1498 1494 1493 1489 1485 1480 1476 1469 1465 1460 1453 1448 1441 1436 1429 1424 1421 1422 1423 1424 1427 1426 1421 1412 1406 1395 1403 1392 1391 1388 1387 1386 1387 1365 1361 1358 1348 1348 1357 1347 1352 1359